Location: Banios
(43.0451°N, 0.2335°E)
Time: 13:32:12
(UTC+00:00)

SL-4 R/B - Pass Details

Date: 25 January 2021
Orbit: 427 x 664 km, 51.6° (Epoch: 25 February)

Event Time Altitude Azimuth Distance (km) Brightness Sun altitude
Exits shadow 06:43:07 - 277° (W) 1,792 4.0 -7.2°
Reaches altitude 10° 06:43:23 10° 279° (W) 1,697 3.9 -7.2°
Maximum altitude 06:46:52 32° 344° (NNW) 920 2.9 -6.6°
Drops below altitude 10° 06:50:37 10° 48° (NE) 1,833 5.1 -5.9°
Sets 06:53:09 0° 59° (ENE) 2,778 6.2 -5.5°
